Surface/Precipitation History
09/17/2014 15:46  to  9/18/2014 15:46
Change End Date:
Date/Time
(MDT)
Sf
Temp Chem Water Layer Surface Precipitation
Sf Sub Frz Factor Pct Depth IcePct Cond Salin Type Intens Accum Rate
09/18/2014 15:40 Wet 70.2F 63F 31F 5 4% 0.00 in 0% 17 mhos 1133 Yes - - -
09/18/2014 15:30 Dry 78.1F 63F - - - - - 36 mhos 2413 None None - -
09/18/2014 15:25 Dry 79.7F 63F - - - - - 36 mhos 2379 None None - -
09/18/2014 15:20 Dry 84.6F 62F - - - - - 36 mhos 2231 None None - -
09/18/2014 15:10 Dry 81.1F 62F - - - - - 36 mhos 2330 None None - -
09/18/2014 15:10 Dry 81.1F 62F - - - - - 36 mhos 2330 None None - -
09/18/2014 15:00 Dry 84.0F 62F - - - - - 36 mhos 2271 None None - -
09/18/2014 14:55 Dry 82.8F 62F - - - - - 36 mhos 2295 None None - -
09/18/2014 14:50 Dry 79.7F 62F - - - - - 36 mhos 2376 None None - -
09/18/2014 14:40 Dry 80.2F 62F - - - - - 36 mhos 2366 None None - -
09/18/2014 14:40 Dry 80.2F 62F - - - - - 36 mhos 2366 None None - -
09/18/2014 14:30 Dry 81.1F 62F - - - - - 36 mhos 2330 None None - -
09/18/2014 14:25 Dry 81.0F 62F - - - - - 36 mhos 2333 None None - -
09/18/2014 14:19 Dry 81.7F 62F - - - - - 36 mhos 2317 None None - -
09/18/2014 14:10 Dry 87.3F 62F - - - - - 36 mhos 2179 None None - -
Date/Time
(MDT)
Sf
Temp Chem Water Layer Surface Precipitation
Sf Sub Frz Factor Pct Depth IcePct Cond Salin Type Intens Accum Rate
09/18/2014 14:09 Dry 87.4F 62F - - - - - 36 mhos 2161 None None - -
09/18/2014 13:59 Dry 86.7F 62F - - - - - 36 mhos 2190 None None - -
09/18/2014 13:55 Dry 86.2F 62F - - - - - 36 mhos 2214 None None - -
09/18/2014 13:49 Dry 83.1F 62F - - - - - 36 mhos 2289 None None - -
09/18/2014 13:40 Dry 85.6F 62F - - - - - 36 mhos 2226 None None - -
09/18/2014 13:39 Dry 85.6F 62F - - - - - 36 mhos 2226 None None - -
09/18/2014 13:29 Dry 78.6F 62F - - - - - 37 mhos 2420 None None - -
09/18/2014 13:25 Dry 78.6F 62F - - - - - 37 mhos 2420 None None - -
09/18/2014 13:19 Dry 79.3F 62F - - - - - 37 mhos 2403 None None - -
09/18/2014 13:10 Dry 81.3F 62F - - - - - 36 mhos 2343 None None - -
09/18/2014 13:09 Dry 80.8F 62F - - - - - 36 mhos 2353 None None - -
09/18/2014 12:59 Dry 81.9F 62F - - - - - 36 mhos 2314 None None - -
09/18/2014 12:55 Dry 82.8F 62F - - - - - 36 mhos 2295 None None - -
09/18/2014 12:49 Dry 85.8F 62F - - - - - 36 mhos 2207 None None - -
09/18/2014 12:40 Dry 87.8F 62F - - - - - 36 mhos 2170 None None - -
Date/Time
(MDT)
Sf
Temp Chem Water Layer Surface Precipitation
Sf Sub Frz Factor Pct Depth IcePct Cond Salin Type Intens Accum Rate
09/18/2014 12:39 Dry 87.3F 62F - - - - - 36 mhos 2180 None None - -
09/18/2014 12:29 Dry 83.3F 62F - - - - - 36 mhos 2302 None None - -
09/18/2014 12:25 Dry 79.3F 62F - - - - - 37 mhos 2403 None None - -
09/18/2014 12:19 Dry 79.7F 62F - - - - - 36 mhos 2376 None None - -
09/18/2014 12:10 Dry 81.7F 62F - - - - - 36 mhos 2334 None None - -
09/18/2014 12:09 Dry 80.8F 62F - - - - - 36 mhos 2353 None None - -
09/18/2014 11:59 Dry 82.4F 62F - - - - - 36 mhos 2321 None None - -
09/18/2014 11:55 Dry 81.7F 62F - - - - - 36 mhos 2337 None None - -
09/18/2014 11:49 Dry 80.6F 62F - - - - - 37 mhos 2376 None None - -
09/18/2014 11:40 Dry 81.9F 62F - - - - - 36 mhos 2330 None None - -
09/18/2014 11:39 Dry 82.0F 62F - - - - - 36 mhos 2327 None None - -
09/18/2014 11:29 Dry 81.7F 62F - - - - - 37 mhos 2353 None None - -
09/18/2014 11:25 Dry 81.1F 62F - - - - - 37 mhos 2363 None None - -
09/18/2014 11:19 Dry 79.7F 62F - - - - - 37 mhos 2410 None None - -
09/18/2014 11:10 Dry 78.3F 62F - - - - - 37 mhos 2444 None None - -
Date/Time
(MDT)
Sf
Temp Chem Water Layer Surface Precipitation
Sf Sub Frz Factor Pct Depth IcePct Cond Salin Type Intens Accum Rate
09/18/2014 11:09 Dry 78.1F 62F - - - - - 37 mhos 2465 None None - -
09/18/2014 10:59 Dry 75.6F 62F - - - - - 37 mhos 2523 None None - -
09/18/2014 10:55 Dry 77.0F 62F - - - - - 37 mhos 2490 None None - -
09/18/2014 10:48 Dry 76.5F 62F - - - - - 37 mhos 2523 None None - -
09/18/2014 10:40 Dry 76.5F 62F - - - - - 37 mhos 2519 None None - -
09/18/2014 10:38 Dry 76.5F 62F - - - - - 37 mhos 2519 None None - -
09/18/2014 10:28 Dry 73.8F 62F - - - - - 38 mhos 2606 None None - -
09/18/2014 10:25 Dry 72.3F 62F - - - - - 38 mhos 2661 None None - -
09/18/2014 10:18 Dry 69.4F 62F - - - - - 38 mhos 2740 None None - -
09/18/2014 10:10 Dry 66.4F 62F - - - - - 38 mhos 2829 None None - -
09/18/2014 10:08 Dry 65.8F 62F - - - - - 38 mhos 2843 None None - -
09/18/2014 09:58 Dry 63.0F 62F - - - - - 37 mhos 2829 None None - -
09/18/2014 09:56 Dry 62.1F 62F - - - - - 36 mhos 2798 None None - -
09/18/2014 09:48 Dry 60.3F 62F - - - - - 1 mhos 58 None None - -
09/18/2014 09:38 Wet 60.4F 62F 32F 5 1% 0.70 in 0% 3 mhos 209 None None - -
Date/Time
(MDT)
Sf
Temp Chem Water Layer Surface Precipitation
Sf Sub Frz Factor Pct Depth IcePct Cond Salin Type Intens Accum Rate
09/18/2014 09:28 Wet 59.0F 62F 32F 5 1% 0.70 in 0% 4 mhos 323 None None - -
09/18/2014 09:25 Wet 59.0F 62F 32F 5 1% 0.70 in 0% 6 mhos 434 None None - -
09/18/2014 09:18 Wet 58.1F 62F 30F 5 8% 0.70 in 0% 31 mhos 2483 None None - -
09/18/2014 09:08 Wet 56.7F 62F 27F 5 15% 0.70 in 0% 51 mhos 4478 None None - -
09/18/2014 08:58 Wet 55.2F 62F 16F 5 35% 0.70 in 0% 90 mhos 10457 None None - -
09/18/2014 08:55 Wet 54.7F 62F 16F 5 34% 0.70 in 0% 89 mhos 10256 None None - -
09/18/2014 08:48 Wet 54.0F 62F 17F 5 33% 0.70 in 0% 86 mhos 9775 None None - -
09/18/2014 08:40 Wet 53.8F 63F 21F 5 26% 0.70 in 0% 76 mhos 7875 None None - -
09/18/2014 08:38 Wet 53.8F 62F 23F 5 24% 0.70 in 0% 71 mhos 7165 None None - -
09/18/2014 08:28 Wet 53.1F 63F 26F 5 16% 0.70 in 0% 53 mhos 4908 None None - -
09/18/2014 08:25 Wet 53.1F 63F 28F 5 12% 0.70 in 0% 42 mhos 3650 None None - -
09/18/2014 08:18 Wet 52.9F 63F 30F 5 7% 0.70 in 0% 25 mhos 2113 None None - -
09/18/2014 08:10 Wet 52.9F 63F 22F 5 25% 0.70 in 0% 73 mhos 7533 Yes - - -
09/18/2014 08:08 Wet 52.9F 63F 29F 5 11% 0.70 in 0% 38 mhos 3320 Yes - - -
09/18/2014 07:58 Wet 52.9F 63F 21F 5 27% 0.70 in 0% 76 mhos 8000 Yes - - -
Date/Time
(MDT)
Sf
Temp Chem Water Layer Surface Precipitation
Sf Sub Frz Factor Pct Depth IcePct Cond Salin Type Intens Accum Rate
09/18/2014 07:55 Wet 52.7F 63F 23F 5 23% 0.70 in 0% 69 mhos 7017 Yes - - -
09/18/2014 07:48 Wet 52.7F 63F 26F 5 17% 0.70 in 0% 54 mhos 5047 Yes - - -
09/18/2014 07:40 Wet 52.7F 63F 26F 5 18% 0.70 in 0% 56 mhos 5300 Yes - - -
09/18/2014 07:37 Wet 52.7F 63F 24F 5 21% 0.00 in 0% 65 mhos 6397 Yes - - -
09/18/2014 07:27 Wet 52.5F 63F 3F 5 50% 0.00 in 0% 229 mhos 15000 Yes - - -
09/18/2014 07:26 Wet 52.5F 63F 3F 5 50% 0.70 in 0% 259 mhos 15000 Yes - - -
09/18/2014 07:17 Wet 52.3F 63F 23F 25 24% 0.00 in 0% 70 mhos 7166 Yes - - -
09/18/2014 07:07 Wet 52.3F 63F 32F 10 1% 0.50 in 0% 4 mhos 309 Yes - - -
09/18/2014 06:57 Wet 52.7F 63F 32F 5 1% 0.20 in 0% 5 mhos 361 Yes - - -
09/18/2014 06:55 Wet 52.9F 63F 32F 5 1% 0.30 in 0% 4 mhos 326 Yes - - -
09/18/2014 06:47 Wet 52.9F 63F 32F 5 1% 0.30 in 0% 4 mhos 344 Yes - - -
09/18/2014 06:37 Wet 53.2F 63F 32F 5 1% 0.40 in 0% 4 mhos 275 None None - -
09/18/2014 06:27 Wet 53.4F 63F 32F 5 1% 0.80 in 0% 3 mhos 215 Yes - - -
09/18/2014 06:26 Wet 53.4F 63F 32F 5 0% 0.80 in 0% 0 mhos 33 Yes - - -
09/18/2014 06:17 Wet 53.8F 63F 32F 5 0% 0.70 in 0% 0 mhos 35 Yes - - -
Date/Time
(MDT)
Sf
Temp Chem Water Layer Surface Precipitation
Sf Sub Frz Factor Pct Depth IcePct Cond Salin Type Intens Accum Rate
09/18/2014 06:07 Dry 53.8F 63F - - - - - 1 mhos 54 None None - -
09/18/2014 05:57 Wet 54.5F 63F 32F 5 1% 0.70 in 0% 3 mhos 212 Yes - - -
09/18/2014 05:55 Dry 55.0F 63F - - - - - 38 mhos 3264 Yes - - -
09/18/2014 05:47 Dry 54.9F 63F - - - - - 36 mhos 3058 Yes - - -
09/18/2014 05:37 Dry 55.0F 63F - - - - - 39 mhos 3289 None None - -
09/18/2014 05:27 Dry 52.9F 63F - - - - - 39 mhos 3372 None None - -
09/18/2014 05:26 Dry 52.5F 63F - - - - - 38 mhos 3365 None None - -
09/18/2014 05:17 Wet 51.6F 63F 32F 5 1% 0.70 in 0% 3 mhos 252 None None - -
09/18/2014 05:07 Wet 52.3F 64F 32F 5 1% 0.70 in 0% 4 mhos 347 Yes - - -
09/18/2014 04:57 Dry 53.2F 64F - - - - - 38 mhos 3307 Yes - - -
09/18/2014 04:55 Dry 53.2F 64F - - - - - 39 mhos 3386 Yes - - -
09/18/2014 04:47 Dry 53.2F 64F - - - - - 39 mhos 3386 None None - -
09/18/2014 04:37 Dry 52.5F 64F - - - - - 1 mhos 62 None None - -
09/18/2014 04:27 Dry 53.2F 64F - - - - - 40 mhos 3439 None None - -
09/18/2014 04:26 Dry 53.1F 64F - - - - - 40 mhos 3446 None None - -
Date/Time
(MDT)
Sf
Temp Chem Water Layer Surface Precipitation
Sf Sub Frz Factor Pct Depth IcePct Cond Salin Type Intens Accum Rate
09/18/2014 04:16 Dry 52.7F 64F - - - - - 40 mhos 3459 None None - -
09/18/2014 04:06 Dry 52.7F 64F - - - - - 40 mhos 3459 None None - -
09/18/2014 03:56 Dry 53.2F 64F - - - - - 40 mhos 3439 None None - -
09/18/2014 03:55 Dry 53.2F 64F - - - - - 40 mhos 3439 None None - -
09/18/2014 03:46 Dry 53.8F 64F - - - - - 40 mhos 3419 None None - -
09/18/2014 03:36 Dry 53.8F 64F - - - - - 40 mhos 3419 None None - -
09/18/2014 03:26 Dry 53.8F 64F - - - - - 40 mhos 3413 None None - -
09/18/2014 03:26 Dry 53.8F 64F - - - - - 40 mhos 3413 None None - -
09/18/2014 03:16 Dry 54.0F 64F - - - - - 40 mhos 3406 None None - -
09/18/2014 03:06 Dry 53.8F 64F - - - - - 40 mhos 3413 None None - -
09/18/2014 02:56 Dry 53.8F 64F - - - - - 40 mhos 3413 None None - -
09/18/2014 02:55 Dry 53.8F 64F - - - - - 40 mhos 3416 None None - -
09/18/2014 02:46 Dry 54.1F 64F - - - - - 40 mhos 3403 None None - -
09/18/2014 02:40 Dry 54.5F 64F - - - - - 40 mhos 3387 None None - -
09/18/2014 02:36 Dry 54.7F 64F - - - - - 40 mhos 3380 None None - -
Date/Time
(MDT)
Sf
Temp Chem Water Layer Surface Precipitation
Sf Sub Frz Factor Pct Depth IcePct Cond Salin Type Intens Accum Rate
09/18/2014 02:26 Dry 54.5F 64F - - - - - 40 mhos 3387 None None - -
09/18/2014 02:26 Dry 54.5F 64F - - - - - 40 mhos 3387 None None - -
09/18/2014 02:16 Dry 54.3F 64F - - - - - 40 mhos 3393 None None - -
09/18/2014 02:06 Dry 54.1F 64F - - - - - 40 mhos 3400 None None - -
09/18/2014 01:56 Dry 54.0F 64F - - - - - 40 mhos 3406 None None - -
09/18/2014 01:56 Dry 54.0F 64F - - - - - 40 mhos 3406 None None - -
09/18/2014 01:46 Dry 54.1F 64F - - - - - 40 mhos 3400 None None - -
09/18/2014 01:36 Dry 54.5F 64F - - - - - 40 mhos 3387 None None - -
09/18/2014 01:26 Dry 54.9F 64F - - - - - 40 mhos 3374 None None - -
09/18/2014 01:26 Dry 54.9F 64F - - - - - 40 mhos 3374 None None - -
09/18/2014 01:16 Dry 55.0F 64F - - - - - 39 mhos 3341 None None - -
09/18/2014 01:06 Dry 55.0F 64F - - - - - 39 mhos 3335 None None - -
09/18/2014 00:55 Dry 55.4F 64F - - - - - 39 mhos 3322 None None - -
09/18/2014 00:55 Dry 55.4F 64F - - - - - 39 mhos 3322 None None - -
09/18/2014 00:45 Dry 55.4F 64F - - - - - 40 mhos 3349 None None - -
Date/Time
(MDT)
Sf
Temp Chem Water Layer Surface Precipitation
Sf Sub Frz Factor Pct Depth IcePct Cond Salin Type Intens Accum Rate
09/18/2014 00:35 Dry 55.8F 65F - - - - - 39 mhos 3310 None None - -
09/18/2014 00:25 Dry 55.6F 65F - - - - - 39 mhos 3316 None None - -
09/18/2014 00:25 Dry 55.6F 65F - - - - - 39 mhos 3316 None None - -
09/18/2014 00:15 Dry 55.4F 65F - - - - - 39 mhos 3322 None None - -
09/18/2014 00:05 Dry 55.2F 65F - - - - - 39 mhos 3328 None None - -
09/17/2014 23:55 Dry 55.4F 65F - - - - - 39 mhos 3322 None None - -
09/17/2014 23:55 Dry 55.4F 65F - - - - - 39 mhos 3322 None None - -
09/17/2014 23:45 Dry 55.6F 65F - - - - - 39 mhos 3316 None None - -
09/17/2014 23:35 Dry 55.8F 65F - - - - - 39 mhos 3310 None None - -
09/17/2014 23:25 Dry 56.1F 65F - - - - - 39 mhos 3297 None None - -
09/17/2014 23:25 Dry 56.1F 65F - - - - - 39 mhos 3297 None None - -
09/17/2014 23:15 Dry 56.3F 65F - - - - - 39 mhos 3285 None None - -
09/17/2014 23:05 Dry 56.7F 65F - - - - - 39 mhos 3273 None None - -
09/17/2014 22:56 Dry 57.2F 65F - - - - - 39 mhos 3255 None None - -
09/17/2014 22:55 Dry 57.2F 65F - - - - - 39 mhos 3255 None None - -
Date/Time
(MDT)
Sf
Temp Chem Water Layer Surface Precipitation
Sf Sub Frz Factor Pct Depth IcePct Cond Salin Type Intens Accum Rate
09/17/2014 22:45 Dry 57.4F 65F - - - - - 39 mhos 3243 None None - -
09/17/2014 22:35 Dry 57.9F 65F - - - - - 39 mhos 3225 None None - -
09/17/2014 22:25 Dry 58.3F 65F - - - - - 39 mhos 3189 None None - -
09/17/2014 22:25 Dry 58.3F 65F - - - - - 39 mhos 3214 None None - -
09/17/2014 22:15 Dry 58.6F 65F - - - - - 39 mhos 3178 None None - -
09/17/2014 22:05 Dry 58.8F 65F - - - - - 39 mhos 3169 None None - -
09/17/2014 21:55 Dry 59.2F 65F - - - - - 39 mhos 3155 None None - -
09/17/2014 21:55 Dry 59.2F 65F - - - - - 39 mhos 3155 None None - -
09/17/2014 21:44 Dry 59.7F 64F - - - - - 39 mhos 3138 None None - -
09/17/2014 21:34 Dry 59.9F 64F - - - - - 39 mhos 3127 None None - -
09/17/2014 21:25 Dry 60.4F 64F - - - - - 39 mhos 3111 None None - -
09/17/2014 21:24 Dry 60.6F 64F - - - - - 39 mhos 3105 None None - -
09/17/2014 21:14 Dry 61.0F 64F - - - - - 39 mhos 3094 None None - -
09/17/2014 21:04 Dry 61.7F 64F - - - - - 39 mhos 3044 None None - -
09/17/2014 20:55 Dry 62.1F 64F - - - - - 39 mhos 3028 None None - -
Date/Time
(MDT)
Sf
Temp Chem Water Layer Surface Precipitation
Sf Sub Frz Factor Pct Depth IcePct Cond Salin Type Intens Accum Rate
09/17/2014 20:54 Dry 62.2F 64F - - - - - 39 mhos 3023 None None - -
09/17/2014 20:44 Dry 63.0F 64F - - - - - 39 mhos 3002 None None - -
09/17/2014 20:34 Dry 63.7F 64F - - - - - 39 mhos 2977 None None - -
09/17/2014 20:25 Dry 64.4F 64F - - - - - 38 mhos 2935 None None - -
09/17/2014 20:24 Dry 64.4F 64F - - - - - 38 mhos 2930 None None - -
09/17/2014 20:14 Dry 65.3F 64F - - - - - 38 mhos 2905 None None - -
09/17/2014 20:10 Dry 65.7F 64F - - - - - 38 mhos 2896 None None - -
09/17/2014 20:04 Dry 66.0F 64F - - - - - 38 mhos 2882 None None - -
09/17/2014 19:55 Dry 66.9F 64F - - - - - 38 mhos 2832 None None - -
09/17/2014 19:54 Dry 66.9F 64F - - - - - 38 mhos 2832 None None - -
09/17/2014 19:44 Dry 68.0F 64F - - - - - 38 mhos 2800 None None - -
09/17/2014 19:40 Dry 68.5F 64F - - - - - 38 mhos 2766 None None - -
09/17/2014 19:34 Dry 69.3F 64F - - - - - 38 mhos 2745 None None - -
09/17/2014 19:25 Dry 70.3F 64F - - - - - 38 mhos 2715 None None - -
09/17/2014 19:24 Dry 70.7F 64F - - - - - 38 mhos 2706 None None - -
Date/Time
(MDT)
Sf
Temp Chem Water Layer Surface Precipitation
Sf Sub Frz Factor Pct Depth IcePct Cond Salin Type Intens Accum Rate
09/17/2014 19:14 Dry 72.3F 64F - - - - - 38 mhos 2641 None None - -
09/17/2014 19:10 Dry 73.2F 64F - - - - - 37 mhos 2603 None None - -
09/17/2014 19:04 Dry 74.3F 64F - - - - - 37 mhos 2576 None None - -
09/17/2014 18:55 Dry 75.9F 64F - - - - - 37 mhos 2516 None None - -
09/17/2014 18:54 Dry 76.1F 64F - - - - - 37 mhos 2512 None None - -
09/17/2014 18:44 Dry 77.2F 64F - - - - - 37 mhos 2487 None None - -
09/17/2014 18:40 Dry 77.5F 63F - - - - - 37 mhos 2480 None None - -
09/17/2014 18:34 Dry 77.4F 63F - - - - - 37 mhos 2483 None None - -
09/17/2014 18:25 Dry 78.6F 63F - - - - - 37 mhos 2434 None None - -
09/17/2014 18:24 Dry 79.2F 63F - - - - - 37 mhos 2424 None None - -
09/17/2014 18:13 Dry 80.2F 63F - - - - - 37 mhos 2383 None None - -
09/17/2014 18:10 Dry 80.2F 63F - - - - - 37 mhos 2383 None None - -
09/17/2014 18:03 Dry 82.0F 63F - - - - - 36 mhos 2327 None None - -
09/17/2014 17:55 Dry 82.6F 63F - - - - - 36 mhos 2318 None None - -
09/17/2014 17:53 Dry 82.6F 63F - - - - - 36 mhos 2318 None None - -
Date/Time
(MDT)
Sf
Temp Chem Water Layer Surface Precipitation
Sf Sub Frz Factor Pct Depth IcePct Cond Salin Type Intens Accum Rate
09/17/2014 17:43 Dry 83.1F 63F - - - - - 36 mhos 2305 None None - -
09/17/2014 17:40 Dry 82.2F 63F - - - - - 37 mhos 2341 None None - -
09/17/2014 17:33 Dry 81.1F 63F - - - - - 37 mhos 2363 None None - -
09/17/2014 17:25 Dry 82.2F 63F - - - - - 36 mhos 2324 None None - -
09/17/2014 17:23 Dry 82.6F 63F - - - - - 37 mhos 2334 None None - -
09/17/2014 17:13 Dry 79.0F 63F - - - - - 37 mhos 2427 None None - -
09/17/2014 17:10 Dry 79.2F 63F - - - - - 37 mhos 2424 None None - -
09/17/2014 17:03 Dry 79.2F 63F - - - - - 37 mhos 2424 None None - -
09/17/2014 16:53 Dry 79.7F 63F - - - - - 37 mhos 2396 None None - -
09/17/2014 16:43 Dry 80.1F 62F - - - - - 37 mhos 2388 None None - -
09/17/2014 16:40 Dry 79.7F 62F - - - - - 37 mhos 2393 None None - -
09/17/2014 16:33 Dry 79.3F 62F - - - - - 37 mhos 2403 None None - -
09/17/2014 16:25 Dry 79.7F 62F - - - - - 37 mhos 2396 None None - -
09/17/2014 16:23 Dry 79.5F 62F - - - - - 37 mhos 2400 None None - -
09/17/2014 16:13 Dry 79.7F 62F - - - - - 37 mhos 2393 None None - -
Date/Time
(MDT)
Sf
Temp Chem Water Layer Surface Precipitation
Sf Sub Frz Factor Pct Depth IcePct Cond Salin Type Intens Accum Rate
09/17/2014 16:10 Dry 80.2F 62F - - - - - 37 mhos 2383 None None - -
09/17/2014 16:03 Dry 80.8F 62F - - - - - 37 mhos 2370 None None - -
09/17/2014 15:55 Dry 82.2F 62F - - - - - 36 mhos 2324 None None - -
09/17/2014 15:53 Dry 83.5F 62F - - - - - 36 mhos 2299 None None - -
Change End Date:
Copyright © 1998-2005 Surface Systems, Inc.
All Rights Reserved
Send comments about the data to:
SCAN Web ® is a registered trademark of Surface Systems, Inc.
SCAN Web Version 5.6